This is the latest recevied weather packets stored in our database for station/object DL6DJ-15. If no packets are shown the sender has not sent any weather packets the latest 10 day(s).
| Time | Temp. | Humidity | Pressure | Rain* | Wind** | Luminosity | Snow |
|---|---|---|---|---|---|---|---|
| 1788012469 | 25° C | 41% | 1017.8 hPa | - | - | - | - |
| 1788012169 | 24.44° C | 42% | 1017.8 hPa | - | - | - | - |
| 1788011868 | 23.89° C | 41% | 1017.9 hPa | - | - | - | - |
| 1788011568 | 23.89° C | 42% | 1018 hPa | - | - | - | - |
| 1788011268 | 24.44° C | 43% | 1018.1 hPa | - | - | - | - |
| 1788010967 | 24.44° C | 42% | 1018.1 hPa | - | - | - | - |
| 1788010667 | 25° C | 41% | 1018.2 hPa | - | - | - | - |
| 1788010367 | 25.56° C | 40% | 1018.2 hPa | - | - | - | - |
| 1788010066 | 25.56° C | 39% | 1018.2 hPa | - | - | - | - |
| 1788009766 | 25.56° C | 39% | 1018.2 hPa | - | - | - | - |
| 1788009465 | 25° C | 43% | 1018.2 hPa | - | - | - | - |
| 1788009165 | 25° C | 40% | 1018.2 hPa | - | - | - | - |
| 1788008865 | 26.67° C | 40% | 1018.4 hPa | - | - | - | - |
| 1788008564 | 27.22° C | 36% | 1018.4 hPa | - | - | - | - |
| 1788008264 | 27.22° C | 39% | 1018.5 hPa | - | - | - | - |
| 1788007964 | 27.78° C | 37% | 1018.4 hPa | - | - | - | - |
| 1788007664 | 28.33° C | 35% | 1018.3 hPa | - | - | - | - |
| 1788007363 | 28.33° C | 34% | 1018.3 hPa | - | - | - | - |
| 1788007063 | 28.33° C | 35% | 1018.3 hPa | - | - | - | - |
| 1788006762 | 28.33° C | 36% | 1018.4 hPa | - | - | - | - |
| 1788006462 | 27.78° C | 37% | 1018.5 hPa | - | - | - | - |
| 1788006161 | 27.78° C | 37% | 1018.6 hPa | - | - | - | - |
| 1788005861 | 27.78° C | 37% | 1018.6 hPa | - | - | - | - |
| 1788005561 | 27.78° C | 37% | 1018.6 hPa | - | - | - | - |
| 1788005261 | 27.78° C | 36% | 1018.7 hPa | - | - | - | - |
* Rain since midnight (hover to see other rain measurements)
** Current wind speed in m/s (hover to see current wind gust speed)